Meteo orario Aliaga

Oggi, 26 Ottobre, Lunedi

Tempo Temperatura Precipitazioni Vento Pressione Umidità
00:00 +6°C° 0.2 mm 5 m/s 653 mm Hg 82%
01:00 +4°C° 0.3 mm 6 m/s 653 mm Hg 83%
02:00 +3°C° 0.3 mm 6 m/s 653 mm Hg 83%
03:00 +3°C° 0.3 mm 6 m/s 652 mm Hg 84%
04:00 +2°C° 0.1 mm 6 m/s 652 mm Hg 82%
05:00 +2°C° 0.1 mm 6 m/s 653 mm Hg 80%
06:00 +2°C° 0.1 mm 6 m/s 653 mm Hg 78%
07:00 +2°C° 0 mm 7 m/s 653 mm Hg 75%
08:00 +1°C° 0 mm 8 m/s 653 mm Hg 72%
09:00 +2°C° 0 mm 9 m/s 654 mm Hg 69%
10:00 +3°C° 0 mm 10 m/s 654 mm Hg 63%
11:00 +5°C° 0 mm 10 m/s 654 mm Hg 57%
12:00 +6°C° 0 mm 11 m/s 655 mm Hg 52%
13:00 +6°C° 0 mm 10 m/s 654 mm Hg 52%
14:00 +5°C° 0 mm 10 m/s 654 mm Hg 52%
15:00 +5°C° 0 mm 10 m/s 654 mm Hg 52%
16:00 +3°C° 0 mm 9 m/s 654 mm Hg 56%
17:00 +2°C° 0 mm 8 m/s 655 mm Hg 60%
18:00 +2°C° 0 mm 7 m/s 655 mm Hg 64%
19:00 +2°C° 0 mm 6 m/s 655 mm Hg 66%
20:00 +2°C° 0 mm 6 m/s 656 mm Hg 68%
21:00 +1°C° 0 mm 6 m/s 656 mm Hg 70%
22:00 +1°C° 0 mm 5 m/s 656 mm Hg 73%
23:00 +1°C° 0 mm 5 m/s 656 mm Hg 76%

Domani, 27 Ottobre, Martedi

Tempo Temperatura Precipitazioni Vento Pressione Umidità
00:00 0°C° 0 mm 4 m/s 656 mm Hg 79%
01:00 0°C° 0 mm 4 m/s 656 mm Hg 81%
02:00 0°C° 0 mm 4 m/s 655 mm Hg 82%
03:00 -1°C° 0 mm 4 m/s 655 mm Hg 84%
04:00 0°C° 0 mm 3 m/s 655 mm Hg 82%
05:00 +1°C° 0 mm 3 m/s 655 mm Hg 81%
06:00 +1°C° 0 mm 3 m/s 655 mm Hg 80%
07:00 +1°C° 0 mm 4 m/s 656 mm Hg 72%
08:00 +4°C° 0 mm 4 m/s 656 mm Hg 64%
09:00 +5°C° 0 mm 5 m/s 657 mm Hg 56%
10:00 +6°C° 0 mm 5 m/s 657 mm Hg 51%
11:00 +8°C° 0 mm 5 m/s 657 mm Hg 47%
12:00 +9°C° 0 mm 5 m/s 657 mm Hg 43%
13:00 +9°C° 0 mm 6 m/s 657 mm Hg 47%
14:00 +9°C° 0 mm 6 m/s 657 mm Hg 52%
15:00 +9°C° 0 mm 6 m/s 656 mm Hg 56%
16:00 +8°C° 0 mm 5 m/s 656 mm Hg 60%
17:00 +7°C° 0 mm 5 m/s 656 mm Hg 64%
18:00 +7°C° 0 mm 5 m/s 656 mm Hg 68%
19:00 +6°C° 0 mm 4 m/s 656 mm Hg 72%
20:00 +5°C° 0 mm 4 m/s 656 mm Hg 75%
21:00 +5°C° 0 mm 3 m/s 656 mm Hg 78%
22:00 +5°C° 0 mm 3 m/s 656 mm Hg 79%
23:00 +5°C° 0 mm 3 m/s 656 mm Hg 79%

Dopodomani, 28 Ottobre, Mercoledi

Tempo Temperatura Precipitazioni Vento Pressione Umidità
00:00 +5°C° 0 mm 3 m/s 656 mm Hg 80%
01:00 +5°C° 0 mm 3 m/s 656 mm Hg 78%
02:00 +7°C° 0 mm 3 m/s 656 mm Hg 77%
03:00 +7°C° 0 mm 3 m/s 656 mm Hg 75%
04:00 +7°C° 0 mm 3 m/s 656 mm Hg 78%
05:00 +5°C° 0 mm 3 m/s 656 mm Hg 80%
06:00 +5°C° 0 mm 3 m/s 656 mm Hg 83%
07:00 +8°C° 0 mm 3 m/s 657 mm Hg 76%
08:00 +10°C° 0 mm 3 m/s 658 mm Hg 69%
09:00 +12°C° 0 mm 3 m/s 659 mm Hg 62%
10:00 +13°C° 0 mm 4 m/s 659 mm Hg 58%
11:00 +14°C° 0 mm 4 m/s 659 mm Hg 53%
12:00 +16°C° 0 mm 5 m/s 660 mm Hg 49%
13:00 +16°C° 0 mm 5 m/s 659 mm Hg 47%
14:00 +16°C° 0 mm 5 m/s 659 mm Hg 45%
15:00 +16°C° 0 mm 5 m/s 659 mm Hg 43%
16:00 +14°C° 0 mm 4 m/s 658 mm Hg 54%
17:00 +11°C° 0 mm 3 m/s 658 mm Hg 65%
18:00 +9°C° 0 mm 2 m/s 658 mm Hg 76%
19:00 +9°C° 0 mm 2 m/s 658 mm Hg 78%
20:00 +9°C° 0 mm 1 m/s 658 mm Hg 81%
21:00 +8°C° 0 mm 1 m/s 658 mm Hg 83%
22:00 +8°C° 0 mm 1 m/s 658 mm Hg 83%
23:00 +8°C° 0 mm 1 m/s 658 mm Hg 84%

29 Ottobre, Giovedi

Tempo Temperatura Precipitazioni Vento Pressione Umidità
00:00 +7°C° 0 mm 2 m/s 658 mm Hg 84%
01:00 +8°C° 0 mm 1 m/s 658 mm Hg 85%
02:00 +7°C° 0 mm 1 m/s 658 mm Hg 85%
03:00 +7°C° 0 mm 1 m/s 658 mm Hg 86%
04:00 +7°C° 0 mm 1 m/s 658 mm Hg 86%
05:00 +6°C° 0 mm 1 m/s 658 mm Hg 86%
06:00 +6°C° 0 mm 1 m/s 658 mm Hg 86%
07:00 +8°C° 0 mm 1 m/s 659 mm Hg 79%
08:00 +10°C° 0 mm 1 m/s 660 mm Hg 72%
09:00 +12°C° 0 mm 1 m/s 661 mm Hg 65%
10:00 +13°C° 0 mm 2 m/s 662 mm Hg 57%
11:00 +15°C° 0 mm 2 m/s 662 mm Hg 50%
12:00 +17°C° 0 mm 3 m/s 662 mm Hg 42%
13:00 +17°C° 0 mm 3 m/s 662 mm Hg 41%
14:00 +17°C° 0 mm 4 m/s 662 mm Hg 41%
15:00 +17°C° 0 mm 4 m/s 662 mm Hg 41%
16:00 +14°C° 0 mm 3 m/s 661 mm Hg 50%
17:00 +12°C° 0 mm 3 m/s 661 mm Hg 59%
18:00 +10°C° 0 mm 2 m/s 660 mm Hg 68%
19:00 +9°C° 0 mm 2 m/s 660 mm Hg 71%
20:00 +9°C° 0 mm 2 m/s 661 mm Hg 74%
21:00 +9°C° 0 mm 1 m/s 661 mm Hg 77%
22:00 +8°C° 0 mm 2 m/s 661 mm Hg 79%
23:00 +8°C° 0 mm 2 m/s 661 mm Hg 80%

30 Ottobre, Venerdi

Tempo Temperatura Precipitazioni Vento Pressione Umidità
00:00 +8°C° 0 mm 2 m/s 661 mm Hg 81%
01:00 +8°C° 0 mm 2 m/s 660 mm Hg 82%
02:00 +8°C° 0 mm 2 m/s 660 mm Hg 83%
03:00 +8°C° 0 mm 2 m/s 660 mm Hg 85%
04:00 +8°C° 0 mm 2 m/s 660 mm Hg 84%
05:00 +7°C° 0 mm 2 m/s 660 mm Hg 83%
06:00 +7°C° 0 mm 2 m/s 659 mm Hg 83%
07:00 +9°C° 0 mm 2 m/s 660 mm Hg 74%
08:00 +13°C° 0 mm 2 m/s 661 mm Hg 66%
09:00 +15°C° 0 mm 2 m/s 662 mm Hg 58%
10:00 +16°C° 0 mm 3 m/s 662 mm Hg 53%
11:00 +17°C° 0 mm 3 m/s 662 mm Hg 48%
12:00 +18°C° 0 mm 4 m/s 662 mm Hg 43%
13:00 +18°C° 0 mm 4 m/s 662 mm Hg 42%
14:00 +19°C° 0 mm 4 m/s 662 mm Hg 42%
15:00 +19°C° 0 mm 4 m/s 662 mm Hg 41%
16:00 +17°C° 0 mm 4 m/s 661 mm Hg 50%
17:00 +14°C° 0 mm 3 m/s 660 mm Hg 59%
18:00 +12°C° 0 mm 3 m/s 660 mm Hg 67%
19:00 +11°C° 0 mm 3 m/s 660 mm Hg 69%
20:00 +11°C° 0 mm 3 m/s 660 mm Hg 72%
21:00 +11°C° 0 mm 3 m/s 660 mm Hg 74%
22:00 +10°C° 0 mm 3 m/s 660 mm Hg 76%
23:00 +10°C° 0 mm 3 m/s 659 mm Hg 78%

31 Ottobre, Sabato

Tempo Temperatura Precipitazioni Vento Pressione Umidità
00:00 +9°C° 0 mm 3 m/s 659 mm Hg 80%
01:00 +9°C° 0 mm 3 m/s 659 mm Hg 78%
02:00 +9°C° 0 mm 3 m/s 659 mm Hg 77%
03:00 +9°C° 0 mm 3 m/s 659 mm Hg 76%
04:00 +8°C° 0 mm 2 m/s 658 mm Hg 76%
05:00 +8°C° 0 mm 2 m/s 658 mm Hg 76%
06:00 +8°C° 0 mm 2 m/s 658 mm Hg 77%
Mostrare altro

Abbiamo bisogno del tuo consenso

Meteoprog e i nostri fornitori di servizi possono memorizzare e accedere a dati personali come cookie, identificatori di dispositivi o altre tecnologie simili sul tuo dispositivo e possono elaborare tali dati per personalizzare i contenuti e gli annunci, nonché fornire funzionalità dei social media e analizzarne il traffico.

  • Archiviare e/o accedere alle informazioni sul tuo dispositivo

    Cookie, identificatori di dispositivi o altre informazioni possono essere memorizzati o resi accessibili sul tuo dispositivo per le finalità sopra indicate.

  • Annunci e contenuti personalizzati, misurazione di annunci e contenuti, approfondimenti sul pubblico e sviluppo di prodotti

    Gli annunci e i contenuti possono essere personalizzati in base a un profilo. È possibile aggiungere più dati per personalizzare meglio annunci e contenuti. È possibile misurare il rendimento degli annunci e dei contenuti. È possibile ricavare informazioni sul pubblico che ha visto gli annunci e i contenuti. Tali dati possono essere utilizzati per sviluppare o migliorare l'esperienza, i sistemi e il software dell'utente.

Cliccando su “Accetto”, acconsenti all'uso di cookie, identificatori di dispositivo, web beacon o altre tecnologie simili. Puoi modificare le impostazioni nel browser del tuo dispositivo.

Per determinati scopi, è possibile fare affidamento su interessi legali, piuttosto che sul consenso. Puoi approfondire questo argomento consultando la nostra Informativa sulla privacy e sui cookie.